Theta_e
303 305 307 308 309 310 311 312 313 314 314 314 313 313 312 310 310 309 304 304 304 303 302 302 301 300 300 299 300 298 296 294 294 293 292 291 291 290 290 290 288 287 286 286 287 288 287 286 286 286 287 287 287 287 287 287 287 287 287 287 286 285 285 284 283 283 285 286 285 285 286 286 285 286 285 285 286 286 286 286 286 285 286 286 286
304 305 306 308 308 310 310 311 312 312 312 311 311 311 309 308 306 303 303 302 302 302 301 300 300 299 299 299 298 297 295 293 292 293 291 290 289 290 289 288 287 286 287 286 286 287 287 286 285 286 286 286 286 286 286 286 286 286 286 286 285 285 285 283 283 282 282 284 284 285 285 285 283 286 284 284 284 285 285 285 286 286 285 286 286
304 305 305 306 306 307 307 307 308 308 308 307 307 306 304 303 301 302 300 298 300 301 300 299 298 299 298 297 297 295 295 293 292 293 291 290 288 288 288 287 287 286 286 286 286 286 286 285 285 285 286 285 285 285 285 285 286 285 285 285 284 285 285 285 283 282 281 281 283 283 283 284 284 284 285 285 285 285 284 284 284 285 286 286 286
303 303 303 303 303 302 303 302 303 303 304 303 302 300 299 299 298 299 298 298 298 297 298 298 297 297 296 294 295 294 293 292 291 291 290 289 288 287 287 287 287 287 286 286 285 286 285 285 285 285 285 284 284 284 285 285 285 285 284 284 284 283 284 283 283 282 281 280 282 282 283 282 283 284 285 285 284 283 284 284 285 285 285 286 286
300 299 298 298 298 299 299 299 301 300 300 299 298 297 297 297 297 297 297 297 296 295 294 295 296 296 295 294 294 293 292 291 290 289 288 288 287 286 286 286 286 286 286 286 285 285 285 285 285 285 285 284 284 284 284 284 284 284 283 283 283 283 283 283 282 282 281 280 281 283 283 283 284 284 284 282 282 283 284 283 284 284 284 286 286
298 298 297 297 296 297 297 297 298 298 297 297 296 296 295 296 296 296 297 296 294 294 294 294 295 295 294 293 293 292 291 290 289 288 287 287 286 286 286 286 285 285 285 285 285 285 285 284 284 284 284 284 284 284 284 283 284 283 283 283 283 283 282 282 282 281 281 281 280 280 282 282 282 283 283 283 281 281 282 283 284 284 284 283 284
296 297 296 297 296 296 296 297 297 296 296 295 294 294 294 294 294 294 294 294 294 294 293 294 293 294 292 292 291 290 289 288 287 287 286 286 286 285 285 285 285 285 285 285 285 284 284 284 284 284 284 284 284 284 283 283 283 283 283 282 283 282 282 281 281 281 280 280 281 281 281 282 282 281 283 283 283 282 281 280 280 283 283 282 281
296 296 296 296 296 295 295 294 294 294 293 292 293 293 293 293 293 293 293 294 294 294 293 293 291 292 291 290 289 288 287 287 286 286 286 286 285 285 285 284 284 284 284 284 284 284 283 283 284 284 284 284 284 284 284 283 283 283 283 283 283 282 281 281 281 280 280 280 280 280 280 280 281 282 283 282 281 281 282 280 279 279 280 281 282
295 295 295 295 294 293 292 292 292 291 291 292 292 292 292 292 292 292 292 293 293 292 292 291 290 289 288 288 287 287 287 286 286 286 286 285 286 285 284 284 283 283 283 283 283 283 283 283 283 283 283 283 283 283 283 283 283 282 283 283 282 282 281 281 280 280 280 280 279 280 280 279 280 280 279 279 279 279 281 281 279 280 280 279 281
294 294 294 293 291 291 291 292 291 291 291 291 291 291 291 291 291 291 291 291 290 290 290 289 289 288 287 286 286 286 286 286 285 287 287 285 285 285 284 284 283 283 282 282 282 282 282 282 283 282 282 282 283 283 283 283 283 283 283 283 282 282 281 280 280 280 280 279 279 279 278 278 279 279 279 280 281 281 280 279 277 278 279 278 279
293 293 294 292 291 291 290 291 291 291 291 291 291 291 290 291 291 290 289 289 289 288 289 288 287 287 286 286 285 286 286 286 287 288 288 287 285 284 284 283 283 282 282 282 281 281 281 281 282 281 281 282 282 283 283 283 283 284 284 284 283 282 280 280 280 280 279 279 279 279 278 278 279 280 279 280 280 279 278 278 278 278 276 275 274
293 293 292 291 291 291 291 290 290 290 290 290 290 290 289 289 289 289 288 287 287 287 287 286 285 285 285 285 285 285 286 287 289 289 288 287 285 284 284 283 283 282 282 281 281 281 281 280 281 280 281 281 281 282 282 282 283 283 284 284 283 283 283 282 280 280 280 278 278 278 278 278 278 279 279 279 278 278 278 278 278 277 276 275 275
292 292 292 291 291 291 290 290 290 290 290 289 289 288 288 288 287 287 287 287 286 286 285 284 284 284 285 285 285 286 287 289 290 289 288 287 286 284 283 283 282 282 281 281 281 281 280 280 280 280 280 281 281 281 281 281 282 283 284 283 282 282 282 283 283 282 281 279 278 278 278 279 278 279 280 279 279 277 277 277 277 277 277 275 275
293 292 291 291 291 291 290 290 290 290 289 288 288 287 287 287 287 287 286 285 285 285 284 283 283 284 284 285 285 287 288 289 289 288 288 287 286 284 282 282 281 281 281 281 281 280 280 280 279 279 279 280 280 281 281 281 282 282 283 282 281 282 282 282 282 281 281 280 279 278 280 280 278 279 279 280 278 277 277 276 277 276 275 274 276
292 292 291 291 291 290 290 290 290 289 288 287 287 287 287 286 286 285 285 285 284 283 283 282 282 283 284 285 286 286 287 289 288 288 287 287 285 283 282 281 281 281 281 281 280 280 280 280 279 279 279 280 280 281 281 282 283 282 281 281 281 281 281 280 279 280 280 281 280 280 280 280 279 279 279 280 279 279 278 277 277 276 276 277 276
291 291 291 291 290 290 290 290 289 288 287 287 287 287 286 285 285 284 283 283 283 282 282 282 281 282 283 284 285 285 287 288 288 287 287 286 285 281 281 281 280 280 280 280 280 280 280 280 279 279 279 280 281 283 283 283 282 281 280 280 279 278 278 279 280 281 281 281 280 280 279 279 280 280 280 280 279 278 278 278 277 276 275 273 272
291 291 290 290 290 289 290 290 289 288 287 286 286 286 285 284 283 282 282 282 281 281 281 280 281 282 282 284 284 285 286 287 287 287 287 286 283 281 281 280 280 279 279 279 279 280 280 280 279 279 279 280 281 283 284 283 281 279 278 276 276 275 276 278 280 280 280 279 279 279 279 280 280 280 280 279 278 278 276 274 274 274 272 271 271
290 290 290 290 289 289 289 289 288 287 286 286 286 285 285 284 283 282 282 281 281 280 280 279 280 281 282 283 284 284 284 285 287 286 286 284 282 281 280 280 279 279 279 279 279 279 280 280 279 279 279 280 282 283 283 281 279 277 276 274 273 274 276 278 278 277 277 277 277 277 278 278 278 277 277 277 278 277 274 272 274 274 272 271 270
288 289 289 289 288 288 288 288 287 286 286 286 286 284 283 283 281 280 281 281 280 279 279 279 279 279 280 281 281 283 283 284 286 286 285 284 282 281 280 279 279 278 278 278 279 279 279 279 280 280 280 281 283 283 282 280 278 276 275 274 273 274 276 276 275 273 273 273 273 274 274 274 274 273 274 276 276 276 275 275 275 273 271 271 271
287 287 286 286 286 286 286 286 286 286 285 285 284 284 282 280 280 280 279 279 278 278 278 278 277 278 278 280 281 282 283 283 284 285 285 284 283 280 280 279 278 278 278 278 277 278 278 278 280 281 282 283 283 282 281 280 278 276 275 274 274 274 276 273 272 272 271 272 272 272 271 271 272 272 272 272 273 274 275 275 275 274 272 271 271
286 286 285 285 284 284 284 285 284 284 284 283 282 280 280 280 279 278 278 277 277 277 276 276 276 276 277 278 279 280 281 282 283 285 285 284 283 281 280 280 279 278 278 277 277 277 277 278 278 280 282 282 282 280 280 279 278 276 276 275 275 276 273 270 269 272 270 269 269 269 270 270 270 270 271 271 272 273 274 275 275 274 273 271 271
285 284 284 284 283 283 282 282 282 282 281 280 279 279 278 278 278 277 277 277 276 275 275 275 275 275 275 276 277 278 280 282 282 284 284 284 283 282 280 280 280 278 277 277 277 277 277 278 278 280 282 281 280 280 279 279 278 275 276 277 276 275 270 270 269 269 268 268 268 268 269 268 268 269 269 270 271 272 272 273 273 274 274 274 272
284 284 283 282 282 281 281 280 281 280 280 280 279 277 277 277 276 276 276 276 275 274 274 274 274 274 273 274 275 277 279 281 283 282 283 284 284 283 282 280 281 279 278 277 277 277 278 278 279 280 281 280 279 279 278 278 276 276 277 276 274 273 270 269 268 267 267 267 267 267 267 267 267 267 268 269 270 271 271 272 272 273 273 274 275
282 281 281 280 280 279 279 279 279 279 279 278 278 277 276 276 276 276 276 276 275 274 274 274 274 273 274 274 274 276 278 280 282 283 283 283 284 283 283 282 282 279 278 278 278 277 277 278 279 280 280 279 279 278 277 276 276 276 275 274 271 270 267 267 266 266 266 266 266 266 266 267 267 267 268 269 270 270 271 271 271 272 273 273 274
280 279 279 278 278 278 277 278 277 278 278 278 277 276 275 275 275 275 275 276 275 275 274 274 274 274 274 274 274 276 277 278 280 282 283 283 283 283 283 283 282 281 278 277 278 277 278 280 280 280 279 278 278 276 275 275 275 274 273 271 268 266 266 266 265 265 265 265 265 265 266 266 267 267 268 269 269 270 270 270 271 272 273 273 274
278 278 277 277 277 276 276 275 275 276 276 278 278 277 276 276 276 275 275 276 275 275 274 274 274 274 274 274 274 275 276 276 278 280 282 282 282 283 283 283 281 281 278 277 278 279 280 280 280 279 278 277 274 271 270 271 272 271 270 268 265 265 265 265 264 264 264 264 264 264 265 266 267 267 268 268 268 268 268 269 270 271 272 272 271
278 276 276 276 274 275 276 276 275 274 275 276 276 276 276 276 276 275 276 276 275 275 274 274 274 274 274 274 274 274 275 275 276 277 279 280 281 281 282 281 281 280 277 277 278 278 280 279 277 276 275 274 273 272 270 269 267 266 265 265 265 265 265 265 264 263 263 264 264 265 265 266 267 267 267 267 267 268 269 269 270 270 271 271 269
278 276 275 275 275 275 276 274 274 275 274 275 275 275 275 276 276 276 276 276 275 275 274 274 274 274 274 274 273 273 273 274 275 275 277 278 279 280 280 279 278 277 276 277 277 277 276 276 275 271 270 268 267 265 265 265 265 264 264 264 264 264 266 266 265 264 264 264 264 265 265 266 266 266 267 266 267 267 269 269 269 269 270 270 268
274 273 273 273 274 273 274 274 275 275 274 273 275 275 276 276 277 277 277 277 278 277 276 276 276 277 277 275 273 272 273 273 274 278 277 279 278 278 277 277 277 276 276 277 273 272 271 269 268 268 267 266 265 265 264 263 264 264 262 263 263 263 262 262 262 262 263 263 263 264 264 265 265 266 266 266 266 267 268 269 270 269 269 269 267
272 273 273 273 273 273 273 273 272 273 273 273 273 271 274 277 276 276 276 277 279 280 280 277 278 278 277 276 276 274 274 275 278 279 280 280 281 280 279 279 279 277 278 278 274 271 271 270 269 267 266 265 265 264 264 264 263 263 263 265 263 262 262 263 262 262 263 263 264 264 264 264 264 265 265 265 266 267 268 269 268 269 268 267 266
273 272 272 273 273 273 272 272 272 272 272 272 272 273 272 271 278 279 278 277 279 280 280 281 281 280 278 276 277 278 278 278 279 280 280 281 281 280 280 280 280 279 279 275 271 270 269 269 268 266 265 265 264 264 264 263 263 263 262 261 261 262 262 262 262 262 263 263 263 263 263 263 263 264 264 264 265 265 266 268 269 269 268 267 266
275 274 273 272 273 272 272 272 271 271 271 271 272 272 272 272 272 277 278 278 279 280 280 280 281 281 280 279 277 277 279 280 280 280 280 281 281 281 280 280 280 280 280 277 270 270 269 269 267 265 265 264 264 264 264 263 263 262 261 261 261 261 261 261 262 261 262 262 262 262 262 262 263 263 264 264 264 265 265 266 267 267 267 267 267
274 273 272 272 272 272 271 271 271 271 271 271 271 271 272 272 273 273 274 278 279 279 280 280 280 281 281 280 280 279 280 281 281 281 281 281 281 281 281 281 281 281 280 273 270 268 268 268 267 265 264 264 264 264 263 263 262 262 261 260 260 260 261 261 262 261 262 262 262 261 261 262 262 262 263 263 264 264 265 266 267 267 267 266 266
272 273 272 272 272 271 271 271 271 271 272 272 272 271 272 273 273 274 273 272 274 277 279 280 280 281 281 281 280 280 281 282 282 282 281 282 282 281 281 279 281 282 278 271 270 269 268 267 266 265 264 264 263 263 263 263 262 261 261 260 260 260 260 261 260 261 262 262 261 260 261 261 261 261 261 262 263 264 264 265 266 266 265 266 265
270 271 270 271 272 272 272 272 271 271 271 271 271 271 271 272 272 273 273 273 273 273 274 276 279 281 280 280 281 281 281 282 282 282 282 282 282 282 281 278 277 277 276 271 269 269 267 266 265 265 264 263 262 262 262 262 261 261 260 260 260 259 259 259 260 261 262 261 260 259 260 260 259 261 261 261 262 263 264 264 265 265 265 265 265
269 270 270 271 271 271 271 271 271 271 271 271 271 271 271 271 271 272 273 273 273 273 273 275 275 279 280 279 280 281 282 282 282 282 282 282 282 282 276 275 275 275 274 271 269 269 267 266 266 265 264 263 263 262 262 261 261 260 260 259 259 259 259 259 260 261 261 261 260 260 260 259 259 260 260 261 261 262 263 264 265 265 265 265 265
269 269 269 269 269 270 270 269 269 270 271 270 269 270 270 270 270 271 271 272 272 272 273 272 272 273 277 276 278 280 281 282 282 282 282 282 282 280 276 274 274 273 271 269 268 267 267 266 266 264 264 263 263 262 261 260 260 259 260 259 259 259 259 259 260 261 261 260 260 258 257 258 258 258 259 259 261 262 263 264 264 265 265 265 265
268 269 269 267 267 267 267 269 268 270 269 269 268 269 269 269 270 270 271 271 271 271 271 271 272 273 274 274 276 277 278 280 281 281 281 281 279 277 275 273 272 271 270 269 267 267 267 266 264 264 264 264 262 261 260 260 260 259 259 259 258 258 260 260 262 262 261 260 259 259 259 258 258 258 259 259 259 260 262 263 264 264 264 264 264
266 269 270 270 270 268 268 267 267 268 268 268 268 268 268 269 269 269 270 270 270 270 270 270 271 272 273 273 274 276 277 276 276 275 276 277 277 276 275 272 270 270 269 268 266 266 266 265 264 263 263 263 261 260 260 259 259 258 258 258 258 258 259 259 258 258 259 259 259 259 259 258 258 258 259 259 259 260 261 262 263 263 263 263 264
266 265 267 270 268 269 267 267 267 267 267 267 267 267 268 268 268 269 269 269 270 270 270 270 270 271 272 273 273 274 274 274 275 275 275 275 275 275 274 272 270 269 268 267 266 266 265 265 263 262 261 261 260 260 260 259 258 258 258 258 257 257 257 257 257 257 258 258 259 259 259 258 259 259 258 259 259 260 261 261 262 263 263 263 263
266 265 266 269 268 266 266 265 266 266 266 267 267 267 267 268 268 268 268 269 269 270 270 270 271 271 272 272 275 275 274 274 274 274 273 273 274 273 273 272 270 269 268 267 266 265 265 264 262 261 261 260 260 259 259 259 258 258 257 257 257 257 257 257 257 257 257 258 259 259 259 259 259 259 258 259 260 260 260 261 262 262 263 263 263
266 265 265 265 266 265 265 266 266 266 266 266 266 267 267 268 268 268 268 269 269 270 270 270 271 271 272 273 274 275 274 273 273 273 272 272 272 272 271 271 270 269 268 267 266 264 264 263 261 261 260 260 259 259 258 258 258 258 258 257 257 257 257 257 257 257 257 257 258 259 259 260 259 260 259 260 259 259 259 260 261 261 262 262 262
268 269 268 268 267 268 268 268 268 267 267 267 268 268 268 269 269 269 269 269 269 270 270 270 271 271 271 273 273 273 273 273 270 271 271 271 271 270 270 269 269 269 268 268 266 265 265 263 261 261 260 260 259 259 258 258 258 258 258 257 257 257 257 257 257 257 257 257 257 258 259 259 260 259 258 258 258 258 258 259 260 260 261 261 261
269 269 268 268 268 268 268 268 268 268 268 268 268 268 268 268 268 268 268 269 269 269 269 270 270 271 270 270 271 271 271 272 272 271 270 270 270 269 269 269 268 268 267 266 265 265 264 262 261 261 261 260 260 260 259 259 259 258 258 257 257 257 257 257 257 257 257 257 257 258 258 258 259 259 258 258 257 257 258 258 259 259 260 260 261
266 267 267 266 266 266 265 266 266 266 266 266 265 266 266 266 266 267 267 267 268 268 269 269 269 269 269 268 269 269 270 271 270 270 270 270 269 269 269 268 267 266 265 265 264 263 263 262 261 260 259 259 259 259 259 258 258 259 259 258 257 257 257 257 258 258 257 257 258 258 258 259 258 258 257 257 258 258 258 257 258 258 259 259 260
262 262 263 263 263 263 262 262 263 263 263 264 264 264 265 265 266 266 266 267 267 267 268 268 269 268 268 268 268 268 268 269 270 270 270 269 269 269 268 268 267 266 265 264 263 262 262 262 260 260 259 259 258 258 258 257 257 257 258 258 258 258 259 258 258 257 257 257 258 258 258 259 258 258 258 257 257 258 257 257 257 258 258 259 260
259 260 261 261 261 262 262 262 262 262 263 263 264 264 264 265 265 265 265 266 266 266 267 267 267 267 267 267 267 267 267 267 268 268 269 269 269 268 268 267 266 265 264 263 262 261 260 260 260 260 259 259 258 257 257 257 256 257 257 257 257 257 257 257 257 257 258 258 258 258 259 259 258 258 258 257 256 256 256 256 256 256 257 258 259
258 259 259 260 259 259 260 259 261 262 262 262 263 263 263 263 263 264 264 264 265 265 265 265 266 266 266 266 267 266 266 267 267 267 268 268 268 268 267 266 265 264 263 262 261 260 259 260 260 260 259 258 257 256 256 256 256 256 256 256 256 256 256 256 256 256 257 257 258 258 258 258 258 257 256 255 253 255 255 255 256 257 257 257 258
257 257 257 258 258 259 258 260 259 260 260 260 261 261 261 262 262 262 263 263 263 264 264 264 265 265 265 266 266 266 266 266 266 267 267 267 267 266 266 265 263 263 262 261 261 259 258 259 259 259 258 258 258 257 256 255 255 255 255 256 256 256 256 256 256 255 256 256 256 257 257 257 258 257 256 255 254 254 255 254 255 256 256 257 257
256 257 256 257 258 257 258 258 258 258 258 259 260 260 261 261 261 261 262 262 263 263 263 264 264 264 265 265 265 265 265 265 265 265 266 266 266 265 265 264 263 262 262 261 260 259 258 258 258 258 258 258 257 257 257 256 256 256 255 255 256 256 256 257 257 256 256 256 256 257 257 257 257 257 256 254 253 253 253 253 254 256 256 256 256
256 256 256 256 256 257 257 257 258 258 258 259 259 260 260 261 262 262 263 263 263 263 264 264 264 264 264 265 264 264 264 264 265 265 265 265 265 264 263 262 262 262 261 261 260 259 258 258 258 258 257 257 257 257 257 256 256 256 256 256 256 257 257 257 257 257 257 257 257 257 257 257 256 255 254 252 251 250 253 254 254 255 255 256 256
Wind_Speed
6 7 7 7 7 8 8 8 8 8 9 9 10 10 10 10 10 10 9 9 10 10 10 10 11 11 10 9 11 10 10 9 8 10 10 9 8 8 8 9 9 6 8 8 5 7 7 7 6 5 4 6 5 4 4 4 4 4 3 3 4 4 3 1 3 7 4 2 3 6 7 9 9 8 11 10 10 9 9 9 9 9 9 9 11
6 6 5 5 7 7 8 7 8 8 9 9 10 9 9 9 8 8 10 9 10 11 11 10 10 11 11 10 9 9 10 10 10 10 10 9 8 7 8 9 8 8 8 7 6 6 6 8 6 6 4 6 5 5 4 4 4 5 4 3 4 4 3 2 2 3 7 2 5 3 5 7 10 7 10 14 14 12 12 10 7 7 7 9 10
4 5 5 6 6 5 5 6 6 7 8 7 8 7 7 7 8 10 9 9 7 10 11 11 10 10 10 10 10 10 11 10 9 10 9 9 9 8 8 10 10 10 9 8 7 7 7 7 7 6 5 7 6 5 4 5 4 5 4 3 4 3 3 2 1 3 6 8 4 6 6 8 8 11 11 10 11 11 13 12 10 7 5 8 9
3 4 4 5 5 5 6 5 6 6 7 6 7 5 6 7 7 8 9 9 9 7 8 11 11 11 10 10 10 10 10 10 9 9 10 10 9 8 8 8 8 9 10 9 8 7 7 8 6 6 6 7 5 5 4 4 4 4 5 5 5 4 3 2 2 3 5 8 5 7 7 8 9 9 9 9 11 12 11 12 10 9 10 9 10
3 3 3 4 4 4 5 5 6 6 6 5 6 7 7 7 7 9 9 9 8 10 7 7 10 10 11 11 11 11 11 10 10 9 9 9 9 9 8 8 8 8 8 7 7 7 7 7 7 6 5 7 5 5 4 5 4 4 5 5 4 3 3 3 2 3 5 8 9 6 7 7 7 8 8 12 13 13 11 11 11 12 10 9 7
4 4 4 5 5 5 5 5 6 6 7 6 8 8 8 7 8 7 9 10 8 8 11 9 10 10 9 10 10 10 9 10 10 11 10 9 7 7 7 7 7 7 7 7 6 6 7 7 6 6 5 6 6 5 5 6 5 6 6 5 4 3 3 3 3 4 5 7 8 9 6 8 9 5 6 10 13 15 17 15 12 7 8 9 8
4 4 5 5 5 5 6 6 6 6 7 7 7 7 7 7 8 10 7 9 11 9 7 9 7 9 9 9 9 10 10 9 10 10 10 9 8 8 7 7 7 6 6 7 6 6 6 6 6 5 6 5 6 6 6 6 5 7 6 5 4 3 3 3 3 4 5 6 7 7 9 8 7 10 9 9 9 8 13 18 19 16 13 10 14
4 4 4 5 5 6 5 5 6 6 5 5 6 7 7 7 6 6 8 9 8 10 11 9 7 7 8 8 8 9 10 9 9 10 10 8 8 7 8 8 8 8 7 6 6 6 6 6 6 5 5 5 6 6 5 5 5 5 5 4 4 3 3 3 4 4 5 6 7 9 8 9 9 7 7 9 11 11 10 12 15 18 19 16 13
4 4 4 4 5 4 4 4 4 5 5 6 6 6 5 6 6 7 6 7 6 8 8 10 10 9 8 8 9 8 9 9 9 9 9 8 7 8 8 8 9 9 8 7 6 6 6 5 5 6 6 7 8 7 6 6 4 5 4 4 4 3 3 3 3 4 5 6 7 7 8 9 9 11 12 11 12 12 14 13 14 15 16 17 15
5 4 5 4 3 4 4 5 5 5 6 7 6 7 7 7 7 7 7 7 7 8 8 8 9 11 10 8 8 7 7 7 9 12 8 9 8 7 7 8 8 8 9 8 7 6 6 6 6 9 8 8 8 8 8 8 7 5 4 3 3 3 3 3 3 4 5 6 7 8 9 8 9 11 12 12 11 12 13 13 14 15 16 16 15
5 6 6 5 6 5 5 5 7 8 7 7 7 7 8 8 8 8 8 8 9 9 9 9 8 8 8 9 9 7 7 7 14 13 13 12 9 8 9 8 8 8 7 8 8 7 6 6 6 6 6 6 6 8 8 7 6 5 5 4 3 2 2 3 3 4 4 5 6 7 8 10 10 10 11 11 11 12 11 12 13 14 14 15 16
6 6 6 7 7 7 7 7 6 6 7 7 7 7 7 7 7 8 9 8 7 8 9 9 9 8 7 8 9 8 7 11 14 14 14 14 10 8 8 8 7 7 7 7 7 7 7 6 5 4 4 4 4 3 3 2 2 2 3 3 3 3 3 2 3 4 4 5 6 6 8 9 10 9 10 11 12 13 12 12 12 12 14 14 13
7 6 6 7 7 6 6 7 7 7 7 7 7 6 7 6 6 7 8 8 9 9 9 9 9 9 9 11 10 9 9 14 15 15 15 15 14 10 7 7 8 7 7 7 8 7 7 6 6 4 4 5 3 2 2 1 2 4 2 3 3 3 2 3 4 4 4 5 6 7 7 8 10 9 9 12 13 13 13 12 13 13 12 14 13
8 8 8 8 8 8 7 7 8 7 7 7 7 7 7 8 7 7 8 8 9 10 9 11 10 9 9 10 10 10 10 13 16 16 15 15 15 10 7 8 7 7 8 7 7 7 6 6 6 5 5 4 3 3 2 3 3 2 2 1 1 1 2 3 3 5 5 4 5 6 7 7 9 10 11 11 12 12 12 13 14 14 14 16 17
8 8 8 7 7 8 8 8 8 8 8 7 7 8 8 7 8 7 7 9 10 10 10 10 9 8 10 9 10 10 8 15 15 16 16 16 16 11 8 7 7 7 6 6 6 6 6 5 6 6 6 4 4 4 3 3 3 2 1 0 1 1 2 3 4 4 4 4 5 7 7 7 8 10 10 10 11 11 10 12 13 14 15 17 15
8 7 7 8 8 8 9 8 8 8 9 8 8 9 8 9 10 7 7 6 5 7 6 7 10 10 9 10 11 9 10 15 15 16 17 16 16 8 7 8 7 7 6 6 6 5 6 6 6 6 5 4 5 5 3 2 2 3 2 1 2 3 3 4 5 4 4 5 5 6 7 8 10 10 10 10 10 10 11 10 10 10 12 14 15
10 9 9 8 8 8 9 9 9 9 8 8 8 8 9 8 7 7 8 8 9 9 9 8 8 10 11 10 12 11 10 14 16 17 17 18 12 6 6 6 6 7 6 6 6 6 6 6 5 5 5 3 5 3 2 4 3 4 3 3 2 2 3 3 1 4 7 9 9 10 10 11 11 12 13 15 12 11 9 10 9 9 10 13 14
9 9 9 8 8 8 8 8 7 7 8 9 8 7 5 4 7 7 10 10 10 9 8 8 7 8 11 11 11 12 10 13 17 17 18 17 11 8 7 7 6 6 7 6 5 5 6 8 6 5 4 4 5 3 2 6 4 4 4 3 1 2 2 1 2 4 7 8 8 8 8 9 11 12 12 13 13 10 7 8 10 9 11 10 12
6 7 6 5 6 7 7 6 7 8 9 8 7 9 8 7 5 5 5 6 7 6 7 8 7 6 6 9 11 12 10 12 16 17 17 17 11 6 6 6 7 6 6 6 6 5 6 6 7 5 5 5 4 3 3 5 4 4 3 1 0 1 2 2 3 3 4 5 4 5 6 8 8 8 8 13 13 11 7 8 8 9 10 11 11
4 4 5 6 6 6 6 7 7 8 8 6 5 5 5 6 7 6 5 5 6 6 6 6 9 7 6 8 9 9 11 9 12 17 16 16 14 7 5 7 7 7 7 7 7 5 5 5 7 9 7 5 4 3 3 3 4 3 2 1 1 2 1 3 2 2 3 3 4 4 5 5 5 6 6 7 8 9 8 7 7 8 9 10 11
6 6 7 7 7 7 6 7 7 6 6 7 6 6 5 7 7 7 7 6 6 6 7 6 7 6 5 5 6 7 7 10 11 16 16 16 16 12 6 5 6 7 7 6 6 7 6 6 5 8 7 5 5 4 4 4 4 3 2 2 1 1 5 2 2 4 2 2 3 3 3 3 4 5 5 5 5 6 7 8 7 8 8 9 11
7 7 8 8 8 8 8 7 7 8 7 8 8 7 5 6 7 7 6 7 9 8 7 6 6 6 4 4 5 6 6 9 10 14 16 17 16 14 6 5 7 8 8 6 7 7 7 6 5 7 8 7 5 5 5 4 5 3 2 1 1 4 3 1 0 1 1 2 2 2 2 3 4 4 5 5 5 6 7 7 7 8 8 8 10
7 7 7 7 7 8 7 8 8 7 8 8 9 9 7 8 8 8 9 9 9 9 8 7 8 7 5 4 4 4 7 8 12 11 15 17 17 14 12 8 13 7 8 9 8 7 6 5 5 8 8 8 7 6 5 6 5 3 3 3 3 5 4 1 2 2 2 2 2 2 2 2 3 4 4 5 6 6 6 7 7 8 8 9 10
5 6 6 7 7 7 7 8 7 7 9 9 9 10 9 9 9 9 10 10 10 10 7 7 8 9 9 8 5 6 6 7 10 13 13 17 16 15 15 14 14 6 5 6 6 6 6 6 6 9 10 9 8 7 6 6 4 4 4 4 5 4 2 2 2 3 3 2 3 3 3 3 4 5 5 6 7 7 7 6 7 7 8 8 8
6 6 6 6 6 6 6 7 7 7 8 10 10 9 9 9 9 7 9 9 10 11 9 9 11 10 8 10 7 8 7 7 6 11 15 16 18 16 16 16 15 13 7 5 5 5 8 11 11 11 10 9 9 8 5 5 4 4 4 5 4 1 2 3 3 3 3 2 3 4 5 4 5 7 7 7 7 6 5 5 5 7 8 8 6
5 5 5 5 6 6 7 5 6 6 8 7 9 9 11 11 10 9 9 10 10 10 10 10 9 9 10 7 6 8 8 6 7 7 9 11 13 17 17 16 15 14 10 8 11 13 13 12 13 12 10 8 6 4 3 3 4 4 4 4 1 1 2 3 2 3 2 1 2 4 5 6 7 6 7 6 7 7 7 7 7 5 4 4 4
5 4 5 5 4 6 7 6 6 5 5 5 5 6 7 9 9 10 11 11 11 9 9 10 9 9 9 8 7 8 8 8 8 7 8 9 8 10 12 11 15 15 9 8 11 9 10 9 7 8 7 9 8 6 5 4 2 2 1 0 0 1 2 2 2 1 0 1 3 4 5 6 6 6 6 7 7 7 7 8 8 9 9 8 7
6 6 6 5 5 6 6 7 7 6 6 7 7 6 6 8 10 12 13 13 12 11 11 12 13 13 12 10 8 8 8 9 10 10 11 10 9 8 8 9 10 9 8 8 7 7 7 8 9 5 4 4 3 3 2 1 1 2 1 0 1 2 3 3 3 1 1 1 3 4 5 5 5 5 6 6 6 6 7 7 8 9 10 10 10
4 4 4 4 5 4 5 6 6 6 6 5 4 5 8 10 9 8 6 6 9 12 13 13 13 12 11 11 12 9 8 10 14 13 12 15 14 13 11 10 9 8 9 14 8 6 5 6 7 6 5 5 4 3 2 2 2 2 1 0 0 1 1 1 1 1 1 1 2 2 4 4 5 5 5 6 6 6 7 6 7 8 8 8 8
4 4 4 4 5 5 5 5 5 5 5 6 5 4 4 4 5 6 7 7 6 5 6 8 8 7 8 11 15 19 19 18 16 22 22 22 21 19 14 15 15 12 15 20 11 9 9 8 8 7 6 5 6 6 5 3 3 2 1 2 1 0 1 0 0 1 1 1 1 2 3 4 4 4 5 5 6 5 7 7 6 7 8 9 9
4 3 4 4 5 5 5 5 5 5 5 5 5 6 5 3 7 8 6 6 5 5 6 6 7 10 8 9 10 9 1 9 21 23 24 25 24 22 21 21 21 20 21 14 8 9 9 9 9 8 7 5 6 5 4 4 4 3 2 1 1 2 1 1 1 1 2 1 2 1 2 3 3 4 4 5 5 6 6 5 5 6 7 8 8
6 5 5 4 4 5 4 4 5 5 5 5 6 6 6 6 6 6 7 6 6 9 8 7 9 13 14 11 8 7 8 14 20 23 23 25 25 23 22 23 22 23 23 18 10 9 10 10 9 8 7 7 6 5 5 5 5 4 3 2 3 2 2 2 1 2 2 2 2 2 2 2 3 3 4 5 5 5 5 4 5 6 6 6 7
5 4 4 5 4 5 4 5 5 6 6 7 6 6 7 7 9 8 5 7 9 10 11 11 12 13 15 15 16 12 10 16 23 24 24 25 25 24 24 23 23 24 24 13 9 9 9 9 11 7 8 8 6 6 6 5 5 4 4 4 3 2 2 2 1 2 2 3 2 1 1 2 3 4 4 4 4 5 5 4 5 5 5 6 7
4 5 5 6 6 5 5 5 6 6 6 6 6 7 7 8 8 7 7 5 5 7 10 14 13 13 16 17 17 17 16 19 23 24 25 26 26 25 23 17 22 25 21 12 11 10 10 10 11 11 8 6 6 6 6 5 5 4 4 3 3 2 2 2 1 3 2 2 1 1 2 2 3 2 3 3 4 4 4 4 4 5 5 6 7
3 4 6 6 5 6 6 6 6 6 5 6 6 7 8 7 7 7 8 9 9 10 9 9 12 15 12 13 17 19 18 19 22 23 25 25 25 24 22 12 14 14 14 9 10 10 11 12 14 13 11 11 7 7 7 6 6 5 5 4 3 3 2 2 2 4 3 2 2 1 2 2 2 2 2 3 3 4 4 4 4 5 5 6 6
3 3 2 4 4 4 4 4 5 5 6 7 7 7 6 6 6 7 6 7 7 8 6 5 4 8 14 11 16 17 18 19 20 23 23 25 25 26 14 11 11 12 12 10 11 11 9 9 10 12 9 7 6 7 7 7 7 6 5 5 5 4 3 3 3 3 4 2 3 2 2 1 1 2 3 3 4 3 3 4 4 4 5 5 6
3 3 4 4 3 4 4 4 4 5 4 5 5 4 5 5 5 5 5 7 7 6 6 3 3 3 7 6 9 13 17 18 19 21 22 22 26 18 10 11 12 11 9 10 9 8 9 10 9 10 8 9 9 8 8 7 7 7 6 5 4 5 5 4 4 4 4 2 3 3 2 2 1 2 2 3 3 3 3 3 4 5 5 6 6
4 4 5 4 4 4 4 4 5 5 5 4 4 4 5 5 6 7 7 8 7 6 6 6 6 8 9 8 8 7 10 15 17 16 17 18 16 13 11 10 10 11 11 9 9 10 11 10 10 9 11 10 11 10 8 7 7 7 6 6 5 6 8 6 8 7 6 4 3 3 2 2 2 2 3 3 3 3 3 3 3 4 5 5 5
3 4 4 5 4 4 4 3 3 3 4 4 4 4 5 5 6 6 6 6 7 7 7 7 8 9 9 6 7 7 8 10 11 12 12 12 11 10 10 10 10 10 9 9 9 10 10 11 11 9 9 11 12 10 11 10 7 7 6 6 6 5 7 7 7 6 5 4 3 3 2 2 2 2 2 3 3 3 3 4 3 3 4 5 5
4 3 3 4 3 3 3 4 3 3 4 4 5 5 5 5 6 7 6 6 8 7 7 8 9 9 6 7 9 9 11 12 12 11 11 11 12 12 11 11 11 11 11 10 10 11 11 10 12 12 11 10 10 10 9 9 8 7 6 6 7 8 7 6 6 6 6 5 4 4 2 2 2 2 3 3 3 3 3 4 3 3 4 4 5
1 1 2 2 3 2 3 3 4 5 4 5 5 6 7 7 6 6 6 7 7 7 8 8 8 5 5 9 12 13 11 11 10 8 9 10 10 10 10 10 10 11 10 10 10 10 11 12 12 9 9 9 9 9 9 9 8 7 7 7 7 7 6 5 6 6 6 5 6 5 4 3 3 3 3 3 3 3 3 4 4 3 4 4 5
2 2 2 2 3 3 4 5 5 5 5 5 5 6 6 6 6 6 7 7 7 8 8 8 8 6 6 13 15 18 11 9 8 8 9 10 10 11 10 10 9 9 10 10 10 11 12 12 15 11 11 11 12 9 8 9 8 8 8 9 8 8 8 8 7 6 7 6 6 6 6 5 5 4 3 4 2 2 3 3 3 4 4 4 4
2 2 2 2 3 4 4 4 4 4 4 5 5 5 6 6 6 6 7 7 8 7 8 9 7 5 7 11 14 17 12 11 9 10 10 10 10 10 10 11 11 10 10 9 8 9 11 15 15 11 13 13 11 10 11 10 9 8 8 9 9 9 9 8 6 6 6 6 6 5 6 6 5 3 2 3 3 2 3 3 3 3 4 5 4
2 1 1 2 2 3 2 3 4 4 4 5 5 5 5 5 6 6 7 7 7 7 8 8 7 6 6 6 9 11 12 12 12 12 12 11 11 11 11 10 10 10 9 9 8 7 9 12 15 14 12 12 7 8 7 8 9 9 8 8 8 10 8 8 8 7 8 8 6 5 5 5 5 4 4 4 2 3 3 3 3 4 4 4 4
1 1 2 2 2 3 3 3 3 4 4 4 4 5 5 5 6 6 6 7 7 7 8 8 7 7 6 6 8 10 11 11 11 11 12 12 12 12 10 10 10 11 10 10 10 10 11 13 15 15 15 9 11 11 9 11 10 7 8 8 8 9 9 8 7 7 8 7 6 5 6 6 5 5 4 4 3 3 3 3 3 4 5 4 3
1 1 1 1 2 3 4 3 4 4 4 4 5 5 5 5 6 6 7 7 7 8 8 7 7 7 7 8 8 9 10 10 11 12 10 11 11 11 9 9 9 10 10 9 9 11 11 15 14 12 14 10 12 10 7 7 8 7 8 7 8 7 6 5 6 7 7 7 7 6 6 6 6 6 6 4 4 4 3 3 3 4 5 5 4
1 1 1 2 2 4 4 4 3 4 4 5 5 6 6 6 6 6 7 8 8 7 8 8 7 8 8 8 9 9 9 10 11 11 12 12 11 10 9 9 8 9 7 7 8 10 13 10 12 15 10 9 9 11 8 7 7 7 6 6 7 6 6 6 6 5 6 7 7 6 6 6 6 5 6 5 4 3 3 2 3 4 5 5 4
1 2 2 3 2 3 4 3 5 5 5 5 5 6 6 6 6 6 6 7 7 8 8 8 8 8 8 9 8 8 9 9 10 10 10 10 10 9 9 9 9 8 6 6 9 12 15 15 11 10 11 11 9 10 9 9 8 8 8 7 7 8 8 8 8 7 6 7 7 7 6 6 5 6 5 5 5 4 3 2 2 4 5 5 5
1 2 2 2 3 5 4 5 5 5 5 5 6 6 6 6 6 6 6 7 7 7 8 8 8 8 8 9 8 8 8 8 10 10 10 10 9 8 9 8 9 8 9 10 8 14 14 13 12 12 14 13 9 8 8 9 9 9 9 7 8 13 12 13 8 8 8 6 5 6 6 6 6 6 6 5 6 4 4 3 2 3 5 5 5
2 2 2 3 5 4 5 5 5 6 6 6 6 6 6 6 6 6 6 7 7 8 7 8 8 8 8 9 8 8 8 9 10 10 10 9 8 7 8 9 8 9 9 10 12 14 12 10 14 13 14 13 9 8 7 7 8 8 7 7 12 15 14 15 13 12 9 6 7 7 7 7 7 6 5 6 5 5 5 3 2 4 5 5 5
3 2 3 3 4 4 4 5 5 5 5 5 5 6 6 6 7 7 7 7 8 8 8 8 8 8 9 9 8 9 9 9 9 9 9 9 8 7 8 8 9 9 9 12 12 13 10 14 16 14 14 14 11 9 8 7 7 7 9 13 14 14 14 13 9 13 14 10 7 7 7 7 7 7 6 5 4 5 7 4 3 4 4 5 5
Wind_Direction
210 218 204 206 198 196 193 190 192 189 185 185 185 189 186 181 179 175 154 167 159 158 154 155 151 148 149 152 145 144 134 116 128 118 133 140 145 145 151 140 128 123 126 119 116 116 115 112 117 121 136 114 114 112 100 96 94 89 93 102 101 101 117 144 245 286 290 183 332 317 320 325 318 327 323 325 324 327 325 328 329 331 329 326 319
203 206 207 204 206 200 196 193 191 187 188 187 190 188 180 178 168 150 169 164 164 157 155 154 152 150 151 152 146 142 142 147 150 145 144 146 145 150 147 136 126 129 130 123 128 119 122 120 120 123 129 114 114 103 103 102 100 103 99 95 95 91 102 127 269 268 296 313 320 315 312 327 312 328 334 328 327 328 324 323 323 323 323 323 319
198 197 193 193 203 201 191 193 187 188 186 187 186 178 172 160 157 161 157 158 165 159 154 155 155 153 149 150 145 147 150 154 157 149 146 145 144 148 150 143 140 138 136 136 135 137 122 118 122 125 130 107 101 102 105 102 107 108 112 107 97 90 78 66 12 286 300 312 312 324 329 326 321 324 327 320 313 318 320 323 321 318 312 318 317
198 193 191 190 181 173 182 177 178 181 183 177 169 157 151 150 154 154 155 154 155 154 154 153 152 151 149 151 154 152 153 153 153 149 147 147 149 147 148 144 141 138 134 138 141 137 131 121 127 128 127 112 116 114 113 118 115 115 108 97 95 85 63 52 9 311 309 312 314 326 320 320 321 319 317 313 316 318 317 312 318 323 327 321 320
174 172 165 160 159 166 171 170 171 172 165 155 156 151 154 153 156 156 152 155 156 148 146 150 147 150 154 158 157 156 157 153 146 140 139 145 147 146 144 136 135 128 128 130 136 133 129 123 133 136 134 121 126 122 126 120 122 114 104 97 83 72 52 35 358 329 309 307 308 311 308 307 306 310 331 336 329 324 318 315 317 316 315 321 321
172 162 160 158 162 165 167 164 169 166 158 159 160 160 156 158 156 157 159 150 151 156 151 157 157 157 156 156 152 150 149 151 146 143 143 141 139 135 131 127 123 120 121 121 123 123 123 126 133 140 144 134 134 133 129 127 124 113 105 93 80 63 53 30 357 336 320 309 313 314 319 324 324 325 347 343 335 331 330 325 317 309 319 328 329
170 166 170 169 165 171 167 171 165 163 166 162 154 153 158 157 157 159 160 153 152 151 154 148 152 147 145 143 149 149 150 146 141 139 139 138 138 135 129 121 118 112 112 115 113 111 113 121 129 134 132 133 135 136 135 131 123 114 103 95 78 67 47 20 355 340 329 322 316 314 317 321 324 321 337 339 329 330 331 329 325 327 327 330 327
169 171 169 168 172 171 173 162 161 160 149 144 153 156 151 153 152 142 145 149 153 153 151 148 137 138 144 147 146 146 145 141 135 137 139 141 140 136 131 128 123 115 112 108 109 111 115 119 121 122 123 127 129 133 137 130 128 115 107 90 82 63 44 13 355 343 333 329 325 325 328 324 323 320 322 336 337 333 337 326 314 318 321 323 327
170 168 166 173 177 168 156 143 129 133 137 137 138 138 138 135 135 142 144 139 138 142 138 139 136 134 137 143 146 147 146 146 146 144 141 140 142 134 134 130 127 124 117 112 110 112 114 112 114 119 117 119 122 127 130 135 131 117 108 97 83 66 36 13 356 342 334 329 323 325 326 328 328 330 333 339 339 325 323 325 311 310 315 314 319
167 167 174 175 160 151 149 143 140 134 140 145 148 148 146 143 143 142 140 137 134 134 134 139 144 147 144 140 141 144 143 141 145 145 143 144 140 131 124 127 128 127 126 122 119 117 114 115 115 114 112 116 122 123 121 117 117 114 112 103 82 63 32 10 350 338 329 326 326 326 325 324 325 325 320 319 319 321 321 321 314 315 317 314 310
179 177 182 169 162 156 152 156 150 156 159 153 149 152 150 148 147 140 135 139 141 143 141 141 139 141 142 144 145 145 142 140 143 143 143 139 132 134 134 131 130 129 132 134 136 133 124 119 118 116 116 123 128 128 122 120 118 110 105 93 73 60 34 358 330 322 321 315 315 316 312 310 314 318 315 316 321 325 319 316 312 316 319 323 320
186 189 178 167 166 167 165 156 158 156 151 152 153 148 141 143 145 144 142 142 143 139 142 142 137 139 140 142 145 143 136 143 141 138 139 139 138 132 133 133 135 135 139 138 137 135 135 131 128 128 132 137 136 125 127 136 138 113 108 92 59 26 356 316 307 311 312 308 308 306 308 303 310 316 318 324 323 320 316 312 311 313 313 312 310
187 186 177 172 172 168 161 161 159 159 162 154 152 147 149 149 149 151 153 148 140 148 145 141 143 145 149 148 141 138 135 143 136 138 139 140 138 130 130 129 132 137 140 141 141 141 139 137 136 141 144 148 144 144 151 193 213 223 210 69 33 356 323 311 305 300 298 296 298 299 297 308 310 314 324 321 318 311 314 313 313 310 308 304 302
193 190 178 181 174 170 166 166 165 165 158 156 155 158 159 163 161 155 145 147 153 148 148 149 150 152 152 145 135 135 135 142 138 139 138 137 136 130 125 127 128 134 140 141 142 143 146 145 147 150 157 164 171 180 198 205 200 194 158 42 359 324 306 301 311 313 309 293 291 291 301 311 307 313 318 317 314 311 312 310 313 311 312 304 303
201 193 187 183 173 170 168 171 168 162 163 162 165 169 167 159 161 161 156 159 159 159 155 153 155 152 151 148 134 134 138 144 142 141 140 138 134 128 125 122 124 129 132 135 138 141 142 146 151 151 157 168 175 203 215 196 168 158 137 26 1 11 20 350 325 310 299 301 299 301 308 317 312 311 311 313 307 306 306 303 309 309 302 303 302
204 193 192 184 180 175 172 176 171 168 168 170 174 176 170 166 163 152 150 144 137 137 143 149 155 155 152 144 136 134 145 146 144 144 143 139 134 127 128 129 130 132 131 135 136 136 142 149 153 158 160 161 186 204 185 151 152 156 128 74 48 15 336 303 291 290 319 325 319 314 312 310 311 310 312 314 315 311 306 304 301 300 311 314 312
205 195 194 185 180 178 180 178 176 172 173 174 181 177 168 166 161 154 150 158 156 162 160 158 158 154 152 150 142 140 146 150 148 148 146 143 135 130 130 128 131 133 138 139 138 142 154 160 160 161 164 173 202 197 184 114 118 112 97 78 41 340 300 292 317 359 340 325 321 321 320 321 323 323 323 320 315 316 312 309 308 319 316 315 313
204 196 197 182 181 179 180 176 172 172 174 184 181 173 163 149 162 169 166 164 165 162 151 146 158 161 154 153 151 146 149 153 151 152 151 150 146 142 144 136 131 135 138 143 145 150 156 163 166 165 177 190 212 164 109 103 109 106 99 79 345 313 298 26 349 322 330 328 326 329 332 336 335 331 324 318 318 320 311 304 311 318 312 311 309
197 202 193 171 173 173 175 176 175 175 182 185 176 170 172 167 151 148 147 147 147 141 148 149 150 154 152 144 146 145 148 154 156 156 156 155 148 135 139 136 139 148 149 150 158 157 162 170 180 187 190 204 189 138 108 100 116 112 110 126 283 306 289 359 332 331 325 334 340 347 345 349 339 326 315 316 315 311 305 302 309 314 310 310 311
181 155 149 158 165 171 176 179 178 178 179 167 161 161 141 138 153 151 141 139 140 144 146 152 151 152 148 145 149 151 150 154 159 160 160 159 156 143 143 145 154 155 157 157 157 167 171 175 185 192 182 178 147 129 104 103 125 120 131 158 221 271 24 65 360 339 328 337 336 348 340 325 313 308 303 299 298 291 298 308 309 311 308 307 307
155 162 157 159 167 172 172 178 172 169 163 160 147 138 146 150 145 145 141 135 135 141 149 150 144 140 138 141 142 155 158 153 163 164 164 162 161 157 156 160 153 151 151 158 163 167 175 179 186 188 181 170 147 138 122 114 124 128 163 171 225 347 80 73 346 5 358 355 341 337 316 304 299 298 293 292 291 297 304 307 310 309 307 304 304
161 159 166 169 170 170 172 172 167 163 153 146 148 146 141 139 145 141 139 143 147 147 149 149 145 135 128 145 156 160 164 164 160 166 167 166 167 168 161 168 163 146 151 158 164 176 180 171 175 179 179 161 156 150 149 142 135 137 202 144 71 69 87 80 105 39 17 11 352 333 320 312 311 302 299 298 306 310 306 306 308 307 302 297 295
161 164 164 167 171 171 170 166 164 158 158 158 151 151 150 147 146 145 146 148 150 153 157 155 148 146 143 162 172 172 171 171 169 167 171 171 172 173 172 164 166 163 155 166 174 174 162 168 167 177 174 164 161 160 163 147 150 160 144 103 91 85 88 99 71 55 39 19 352 328 314 311 308 306 300 309 309 300 305 307 303 296 286 279 276
153 158 167 170 168 170 169 166 160 159 157 155 154 154 160 158 156 161 160 158 160 161 165 163 160 163 168 169 179 184 181 176 176 175 174 175 176 176 174 170 169 160 156 164 159 159 161 167 172 180 166 165 169 169 161 158 153 139 119 100 87 85 101 93 67 55 43 25 353 327 315 310 303 305 311 312 305 304 298 291 282 272 268 270 277
154 164 172 170 170 164 160 164 163 164 165 160 160 161 159 159 159 168 162 166 170 172 174 176 177 176 170 176 173 180 180 181 181 181 180 178 180 178 177 176 172 163 160 159 151 159 164 168 170 165 165 169 170 154 141 138 126 123 104 94 90 123 98 81 71 56 47 19 338 307 304 299 300 295 296 302 299 294 292 272 261 253 250 253 263
162 173 169 168 168 158 157 162 164 168 169 174 172 170 167 171 168 169 175 180 182 179 177 180 181 177 183 178 176 174 176 176 184 183 183 181 183 183 180 177 173 175 165 165 165 168 170 173 167 166 169 161 142 125 133 142 136 118 93 90 136 116 98 85 74 67 51 350 304 297 299 305 304 305 300 304 321 326 316 313 321 321 318 313 296
161 162 169 165 158 163 166 166 166 167 172 169 167 168 170 174 171 175 183 181 184 183 178 182 180 185 186 185 171 170 176 181 181 188 186 185 184 183 181 177 174 170 164 167 171 174 179 167 137 138 139 157 152 144 129 121 114 86 87 182 146 92 79 84 86 82 48 286 289 291 295 300 303 303 320 332 329 322 319 319 329 333 336 335 330
169 179 175 166 170 172 175 168 166 173 180 179 174 178 186 185 184 187 187 186 182 187 185 189 190 189 191 179 152 165 180 187 193 190 187 181 181 179 177 171 173 170 165 168 168 160 144 140 141 101 93 95 99 60 99 136 154 160 185 194 149 72 73 71 64 99 222 246 274 282 293 303 308 318 323 330 324 325 323 328 335 335 341 341 340
164 161 163 158 171 174 171 172 178 176 180 196 214 202 189 191 199 208 220 210 201 192 190 198 200 198 186 169 161 176 179 198 207 188 181 181 177 172 176 182 173 174 170 159 138 114 110 117 135 151 156 163 155 173 180 170 201 179 170 207 93 95 99 131 152 197 209 240 270 295 304 311 308 318 328 323 327 330 328 329 334 338 338 346 342
151 176 169 178 174 172 174 172 173 173 178 186 196 237 273 225 226 208 210 215 225 246 218 219 213 199 192 195 186 180 191 205 178 177 187 188 189 185 180 174 177 165 166 165 154 153 168 173 182 174 173 177 185 188 192 191 195 202 203 173 137 108 184 182 209 230 269 285 283 294 301 304 308 324 325 321 320 331 328 329 334 342 342 346 339
166 172 178 202 194 185 172 172 174 174 174 179 189 198 226 246 229 226 216 220 223 234 238 217 190 199 199 196 208 235 260 149 172 181 183 188 188 187 185 184 177 171 168 152 154 170 174 187 196 187 189 183 193 191 183 189 199 193 191 189 199 203 202 187 231 250 267 260 265 273 289 296 308 315 318 319 321 319 320 323 343 344 346 340 337
182 196 196 200 188 189 180 172 161 171 182 182 188 194 201 213 246 232 210 204 217 217 219 211 208 199 199 200 188 214 192 176 177 181 185 186 188 186 186 182 178 175 178 166 162 183 186 194 195 187 180 189 197 184 195 197 194 185 172 188 214 193 191 202 226 233 249 253 255 279 296 306 306 309 310 314 319 317 319 329 346 347 342 339 333
186 188 186 186 185 184 177 177 182 182 187 186 196 195 199 207 214 228 227 215 220 224 223 217 214 209 200 200 198 199 192 182 181 183 184 186 186 186 186 182 178 180 175 171 185 181 190 198 200 181 184 193 180 186 194 196 188 181 182 185 195 191 181 205 245 256 247 241 249 264 283 300 299 303 305 310 319 315 321 328 341 344 341 337 333
195 181 185 186 180 189 191 194 191 198 197 197 198 197 208 209 218 212 209 226 240 242 236 225 216 209 207 200 193 197 198 191 188 183 183 185 186 184 182 181 183 187 184 182 182 190 188 198 200 187 188 171 174 182 191 195 182 176 182 198 199 190 202 206 214 235 236 245 255 253 267 277 290 301 307 310 313 311 318 331 339 348 342 341 333
202 201 187 180 186 196 196 195 197 195 193 197 201 205 212 214 213 212 212 212 216 218 220 218 216 209 205 204 200 200 200 196 190 186 186 185 183 181 174 174 184 195 196 198 193 189 187 196 192 183 172 174 182 185 191 183 176 177 184 189 193 193 193 201 212 222 223 228 240 247 245 267 277 299 305 306 307 318 327 330 337 342 337 333 335
196 201 199 194 197 204 202 206 199 198 201 207 207 210 207 204 209 221 222 225 228 231 237 215 201 215 208 209 208 206 204 198 193 191 188 186 183 177 176 189 188 199 201 193 197 201 194 195 184 176 163 174 174 190 191 182 178 176 173 176 194 193 193 205 209 213 221 217 232 238 248 259 273 293 298 283 272 288 312 323 328 334 332 330 332
185 196 197 203 204 206 208 204 209 212 217 211 206 212 212 214 218 221 223 225 227 231 220 176 148 209 216 216 209 212 210 203 196 192 190 189 188 187 194 188 194 193 201 200 199 197 199 204 195 173 163 184 186 176 178 180 165 160 180 184 186 196 205 202 209 205 203 211 234 233 229 238 246 269 287 287 290 295 297 312 324 326 329 326 328
190 198 206 195 192 198 198 207 214 209 213 207 210 208 216 217 217 218 222 227 222 215 211 201 196 200 203 211 186 195 204 204 199 198 197 196 196 199 198 198 195 194 200 198 197 201 209 207 192 186 187 184 182 173 175 172 167 168 174 174 186 204 209 213 216 206 200 204 206 222 227 235 246 252 274 277 279 283 293 302 316 323 325 323 329
200 210 205 194 189 194 198 203 206 206 219 212 213 208 223 223 227 230 233 233 229 221 217 205 206 208 209 169 178 184 178 197 198 201 198 200 203 203 200 199 200 205 200 199 193 200 206 202 198 196 191 183 166 167 176 171 160 169 172 174 192 194 208 212 209 203 194 190 203 212 209 223 236 243 256 262 269 276 282 288 299 312 320 318 320
185 206 199 197 190 195 181 199 202 206 217 209 225 217 231 227 228 229 231 233 236 236 231 223 223 222 200 173 188 184 199 206 205 204 200 203 204 206 203 201 203 203 201 198 197 202 203 204 192 180 187 178 171 168 171 166 164 165 167 184 195 203 208 204 203 194 197 194 194 200 209 220 239 242 249 252 261 276 278 289 294 304 306 306 309
189 184 195 210 197 186 187 189 207 213 215 215 220 216 225 227 228 228 228 232 234 236 232 234 237 226 200 208 203 200 210 214 213 211 214 214 214 213 212 209 205 208 207 205 203 202 202 198 188 182 187 183 170 167 167 166 162 165 182 188 193 203 206 206 201 200 195 200 203 202 205 211 228 248 250 254 267 276 283 283 289 293 295 294 298
170 182 202 216 207 197 209 222 220 220 217 221 222 222 227 228 228 230 233 236 239 238 241 240 232 213 199 201 207 211 218 230 224 220 220 218 218 219 216 214 211 209 209 211 204 203 203 197 184 181 186 181 174 172 166 165 171 178 181 188 190 195 201 207 203 195 194 202 203 202 201 208 215 229 252 277 277 272 277 278 285 288 289 285 290
192 194 192 184 193 210 217 232 214 216 222 226 232 234 234 234 236 235 238 240 240 239 245 246 242 216 213 204 202 207 218 224 225 224 225 222 222 222 218 215 211 211 212 214 208 204 205 197 184 183 188 186 179 174 175 174 167 173 176 188 193 196 200 204 195 197 189 195 197 201 201 208 216 213 213 246 259 276 276 284 286 285 280 284 279
202 203 217 203 224 232 242 232 236 236 236 242 245 243 238 242 245 245 248 251 247 247 248 250 249 232 222 203 201 209 221 224 224 223 223 220 220 220 219 215 212 210 210 209 206 200 205 199 184 186 179 185 187 173 173 167 167 169 170 173 184 196 197 198 198 193 188 195 194 191 195 201 205 203 215 233 232 255 270 271 280 280 282 279 283
183 211 213 232 237 239 254 253 247 254 258 258 256 253 249 243 245 249 248 251 255 253 252 253 248 243 234 215 211 217 225 226 229 231 231 228 226 225 220 214 209 208 206 206 198 192 198 193 177 178 177 184 186 182 178 172 175 175 172 169 172 187 191 193 195 180 170 179 186 192 200 199 199 209 210 216 223 239 257 264 269 280 279 276 279
181 222 246 250 258 260 256 259 255 250 249 247 251 254 251 243 246 247 248 252 253 255 255 254 250 245 240 232 225 227 230 233 235 235 236 234 231 230 225 220 218 215 213 210 200 198 200 192 175 178 175 183 182 176 181 170 173 171 170 176 184 189 180 163 139 164 173 177 186 190 194 203 207 205 210 204 208 224 230 244 257 263 266 273 272
203 216 238 247 245 252 255 253 251 250 249 250 248 252 250 248 248 248 248 249 252 254 257 256 254 250 245 240 236 235 234 233 238 238 238 237 235 231 226 220 217 215 209 199 199 192 188 185 184 180 174 180 177 176 177 177 173 171 170 176 180 178 173 171 174 175 175 183 188 191 197 199 207 199 214 207 194 209 222 231 241 253 259 266 269
219 227 244 244 252 255 258 256 255 257 253 253 254 252 253 255 253 254 255 256 256 256 257 256 254 252 251 249 244 242 240 242 241 242 242 241 237 231 224 218 216 209 191 197 202 198 189 182 184 181 172 178 162 185 184 182 183 183 188 190 185 183 177 172 173 176 180 189 196 200 203 209 210 200 194 198 201 202 211 222 241 264 266 262 263
220 226 241 245 244 246 247 249 250 249 248 254 256 258 256 255 254 255 256 256 257 255 253 256 257 255 254 255 252 248 246 245 245 245 244 243 238 230 221 215 212 206 192 192 190 187 192 192 179 164 167 171 172 166 180 179 178 187 191 191 186 186 182 181 181 187 180 179 188 195 207 215 215 206 200 200 203 202 207 212 214 249 261 260 261
242 242 237 245 246 249 247 245 245 248 252 251 252 259 256 255 258 257 254 255 257 256 256 255 258 258 257 258 256 254 250 248 248 248 248 246 239 225 220 215 209 200 207 197 187 177 189 190 180 168 167 170 172 169 168 173 185 186 182 184 188 188 187 188 189 183 180 182 184 195 198 209 211 203 198 199 198 196 201 204 206 231 248 253 257
252 250 245 245 246 249 250 251 255 254 250 252 253 256 260 258 258 256 255 255 257 259 258 257 257 260 258 257 257 256 253 252 251 250 249 247 240 224 217 214 213 212 208 191 188 180 190 184 183 177 172 168 168 174 173 175 174 178 187 189 188 188 187 188 191 197 192 189 189 196 202 203 201 200 200 193 185 189 205 201 204 218 237 247 252